Date String (YYYY-MM-DD hh:mm:ss) UTC,Instrument flags,Ambient pressure (hPa),Sample flow (lpm),Bypass flow (lpm),Sample temperature (°C),Ambient temperature (°C),ASC tube jacket temperature (°C),LED temperature (°C),Box temperature (°C),Sample RH (%),Span deviation,Mass concentration (μg/m³),Mass concentration (μg/m³),Mass concentration (μg/m³)
DateTimeUTC,F1_M11,P_M11,Q1_M11,Q2_M11,T1_M11,T2_M11,T3_M11,T4_M11,T5_M11,U1_M11,ZSPAN_M11,X0_M11,X2_M11,X1_M11
2021-09-19 14:00:00,,0824.2,5.01,0.00,29.5,28.3,00.0,38.6,31.2,17.5,0000.0,0003.11,0002.11,0001.72
2021-09-19 14:01:00,,0824.1,4.98,0.00,29.5,28.4,00.0,38.6,31.2,17.2,0000.0,0003.34,0002.24,0001.83
2021-09-19 14:02:00,,0824.1,5.00,0.00,29.5,28.4,00.0,38.6,31.2,17.2,0000.0,0004.98,0002.41,0001.95
2021-09-19 14:03:00,,0824.1,5.00,0.00,29.5,28.5,00.0,38.6,31.3,17.0,0000.0,0007.09,0002.53,0002.05
2021-09-19 14:04:00,,0824.0,5.00,0.00,29.6,28.5,00.0,38.6,31.3,17.1,0000.0,0007.80,0002.65,0002.16
2021-09-19 14:05:00,,0824.1,5.00,0.00,29.6,28.6,00.0,38.6,31.3,16.9,0000.0,0008.15,0002.78,0002.25
2021-09-19 14:06:00,,0824.1,4.99,0.00,29.6,28.6,00.0,38.6,31.3,17.1,0000.0,0008.30,0002.93,0002.33
2021-09-19 14:07:00,,0824.2,4.99,0.00,29.6,28.6,00.0,38.7,31.3,17.3,0000.0,0008.44,0003.03,0002.40
2021-09-19 14:08:00,,0824.2,5.01,0.00,29.6,28.7,00.0,38.7,31.3,17.6,0000.0,0008.47,0003.06,0002.41
2021-09-19 14:09:00,,0824.2,5.00,0.00,29.7,28.7,00.0,38.7,31.4,17.7,0000.0,0008.49,0003.05,0002.37
2021-09-19 14:10:00,,0824.2,4.98,0.00,29.7,28.7,00.0,38.7,31.4,17.7,0000.0,0008.47,0002.99,0002.29
2021-09-19 14:11:00,,0824.2,5.01,0.00,29.7,28.8,00.0,38.7,31.4,17.6,0000.0,0008.37,0002.88,0002.20
2021-09-19 14:12:00,,0824.2,5.00,0.00,29.7,28.8,00.0,38.7,31.4,17.6,0000.0,0008.18,0002.81,0002.12
2021-09-19 14:13:00,,0824.2,4.99,0.00,29.8,28.8,00.0,38.8,31.5,17.5,0000.0,0007.31,0002.71,0002.03
2021-09-19 14:14:00,,0824.2,5.01,0.00,29.8,28.8,00.0,38.8,31.5,17.5,0000.0,0005.34,0002.62,0001.93
2021-09-19 14:15:00,,0824.1,5.00,0.00,29.7,27.4,00.0,38.8,31.1,17.6,0000.0,0004.30,0002.52,0001.83
2021-09-19 14:16:00,,0824.1,4.99,0.00,29.6,26.0,00.0,38.7,30.7,17.8,0000.0,0003.77,0002.35,0001.72
2021-09-19 14:17:00,,0824.1,5.00,0.00,29.5,26.1,00.0,38.7,30.8,17.8,0000.0,0003.44,0002.16,0001.61
2021-09-19 14:18:00,,0824.1,5.01,0.00,29.4,26.5,00.0,38.7,30.9,17.9,0000.0,0003.14,0002.02,0001.52
2021-09-19 14:19:00,,0824.1,5.00,0.00,29.4,26.9,00.0,38.6,30.9,17.9,0000.0,0003.11,0001.97,0001.47
2021-09-19 14:20:00,,0824.0,5.01,0.00,29.4,27.3,00.0,38.6,30.9,17.7,0000.0,0003.19,0001.93,0001.46
2021-09-19 14:21:00,,0824.0,4.99,0.00,29.4,27.5,00.0,38.6,31.0,17.3,0000.0,0003.40,0001.94,0001.50
2021-09-19 14:22:00,,0823.9,5.01,0.00,29.4,27.8,00.0,38.6,31.0,17.3,0000.0,0004.31,0002.06,0001.58
2021-09-19 14:23:00,,0824.0,4.99,0.00,29.4,27.9,00.0,38.6,31.0,17.2,0000.0,0004.84,0002.13,0001.66
2021-09-19 14:24:00,,0824.0,4.99,0.00,29.4,28.1,00.0,38.6,31.0,17.2,0000.0,0004.82,0002.17,0001.74
2021-09-19 14:25:00,,0824.1,5.01,0.00,29.4,28.2,00.0,38.6,31.1,17.5,0000.0,0004.83,0002.23,0001.80
2021-09-19 14:26:00,,0824.1,4.98,0.00,29.4,28.3,00.0,38.6,31.2,17.4,0000.0,0004.97,0002.29,0001.85
2021-09-19 14:27:00,,0824.0,5.01,0.00,29.5,28.4,00.0,38.6,31.2,17.3,0000.0,0005.02,0002.38,0001.94
2021-09-19 14:28:00,,0824.0,5.00,0.00,29.5,28.4,00.0,38.6,31.2,17.0,0000.0,0005.13,0002.52,0002.06
2021-09-19 14:29:00,,0824.0,4.99,0.00,29.5,28.5,00.0,38.6,31.2,16.6,0000.0,0005.31,0002.69,0002.24
2021-09-19 14:30:00,,0824.0,5.02,0.00,29.5,28.6,00.0,38.6,31.3,16.6,0000.0,0005.53,0002.86,0002.38
2021-09-19 14:31:00,,0824.0,5.00,0.00,29.6,28.6,00.0,38.6,31.3,16.6,0000.0,0005.53,0003.02,0002.52
2021-09-19 14:32:00,,0823.9,5.01,0.00,29.6,28.7,00.0,38.6,31.3,16.6,0000.0,0006.01,0003.16,0002.64
2021-09-19 14:33:00,,0824.0,4.98,0.00,29.6,28.7,00.0,38.6,31.4,16.5,0000.0,0005.57,0003.22,0002.72
2021-09-19 14:34:00,,0823.9,5.01,0.00,29.6,28.7,00.0,38.7,31.4,16.6,0000.0,0005.12,0003.27,0002.81
2021-09-19 14:35:00,,0823.8,4.99,0.00,29.6,28.8,00.0,38.7,31.4,16.4,0000.0,0005.40,0003.34,0002.89
2021-09-19 14:36:00,,0823.8,5.01,0.00,29.7,28.8,00.0,38.7,31.4,16.4,0000.0,0005.90,0003.40,0003.00
2021-09-19 14:37:00,,0823.8,4.99,0.00,29.7,28.9,00.0,38.7,31.4,16.4,0000.0,0006.73,0003.51,0003.13
2021-09-19 14:38:00,,0823.8,5.00,0.00,29.7,28.8,00.0,38.7,31.4,16.3,0000.0,0006.90,0003.58,0003.20
2021-09-19 14:39:00,,0823.9,5.01,0.00,29.7,27.4,00.0,38.7,31.2,16.3,0000.0,0007.18,0003.65,0003.24
2021-09-19 14:40:00,,0823.8,4.99,0.00,29.5,25.9,00.0,38.7,30.8,16.6,0000.0,0007.39,0003.70,0003.27
2021-09-19 14:41:00,,0823.7,5.00,0.00,29.4,26.1,00.0,38.7,30.8,16.4,0000.0,0007.53,0003.74,0003.28
2021-09-19 14:42:00,,0823.8,5.00,0.00,29.4,26.5,00.0,38.6,30.9,16.1,0000.0,0007.70,0003.79,0003.31
2021-09-19 14:43:00,,0824.0,5.01,0.00,29.3,26.9,00.0,38.6,30.9,16.1,0000.0,0007.83,0003.83,0003.35
2021-09-19 14:44:00,,0824.1,4.99,0.00,29.3,27.2,00.0,38.6,30.9,17.2,0000.0,0008.08,0003.83,0003.34
2021-09-19 14:45:00,,0824.1,5.00,0.00,29.3,27.5,00.0,38.5,30.9,17.4,0000.0,0007.95,0003.74,0003.26
2021-09-19 14:46:00,,0824.1,5.01,0.00,29.3,27.8,00.0,38.5,31.0,17.2,0000.0,0007.75,0003.63,0003.19
2021-09-19 14:47:00,,0824.1,4.99,0.00,29.4,27.9,00.0,38.5,31.0,17.3,0000.0,0007.43,0003.54,0003.10
2021-09-19 14:48:00,,0824.1,5.00,0.00,29.4,28.1,00.0,38.5,31.1,17.1,0000.0,0006.61,0003.42,0002.95
2021-09-19 14:49:00,,0824.1,5.00,0.00,29.4,28.2,00.0,38.5,31.1,16.5,0000.0,0006.56,0003.39,0002.89
2021-09-19 14:50:00,,0824.1,5.01,0.00,29.4,28.3,00.0,38.5,31.1,16.8,0000.0,0006.21,0003.31,0002.80
2021-09-19 14:51:00,,0824.1,4.99,0.00,29.5,28.4,00.0,38.5,31.2,16.8,0000.0,0005.86,0003.22,0002.69
2021-09-19 14:52:00,,0824.1,5.00,0.00,29.5,28.5,00.0,38.5,31.2,16.9,0000.0,0005.45,0003.13,0002.61
2021-09-19 14:53:00,,0824.1,5.00,0.00,29.5,28.6,00.0,38.6,31.3,16.7,0000.0,0005.19,0003.01,0002.52
2021-09-19 14:54:00,,0824.1,5.01,0.00,29.6,28.6,00.0,38.6,31.3,16.8,0000.0,0004.61,0002.88,0002.44
2021-09-19 14:55:00,,0824.1,5.00,0.00,29.6,28.7,00.0,38.6,31.4,16.8,0000.0,0003.73,0002.77,0002.40
2021-09-19 14:56:00,,0824.1,5.00,0.00,29.6,28.8,00.0,38.6,31.4,17.0,0000.0,0003.77,0002.81,0002.44
2021-09-19 14:57:00,,0824.1,5.01,0.00,29.7,28.8,00.0,38.6,31.5,16.9,0000.0,0003.84,0002.87,0002.48
2021-09-19 14:58:00,,0824.1,4.99,0.00,29.7,28.9,00.0,38.7,31.5,16.9,0000.0,0003.74,0002.88,0002.52
2021-09-19 14:59:00,,0824.1,5.02,0.00,29.7,28.7,00.0,38.7,31.5,16.8,0000.0,0003.72,0002.89,0002.54
